Location: Łódź
(51.7951°N, 19.4477°E)
Time: 19:17:54
(UTC+01:00)

ISS - Visible Passes

Search period start: 22 February 2018 00:00
Search period end: 04 March 2018 00:00
Orbit: 402 x 407 km, 51.6° (Epoch: 23 February)

Date Brightness Start Highest point End Pass type
(mag) Time Alt. Az. Time Alt. Az. Time Alt. Az.
27 Feb -0.9 05:34:55 10° S 05:36:34 13° SE 05:38:13 10° ESE visible
01 Mar -1.7 05:25:27 10° SSW 05:28:06 23° SSE 05:30:48 10° E visible
02 Mar -1.2 04:34:05 10° S 04:36:01 15° SE 04:38:02 10° ESE visible
03 Mar -2.7 05:16:44 11° SW 05:19:43 38° SSE 05:22:49 10° E visible
